contact:dominique.lefevre@mio.osupytheas.fr, maurice.libes@osupytheas.fr, didier.mallarino@osupytheas.fr
Project:EMSO http://www.emso-fr.org/EMSO-France
Depth: 2436.0 m
Title:EMSO Ligure Ouest : Data MII capteur MICROCAT
DateTime_Computer,Latitude,Longitude,Temperature,Conductivity,Pressure,DateTime_Instrument
DateTime_Computer,Latitude,Longitude,degC,S m-1,dbar,DateTime_Instrument
2023-02-26T00:02:28Z,42.805,6.029,13.3039,4.60114,2470.53,2023-2-26T02:04:58Z
2023-02-26T00:05:31Z,42.805,6.029,13.3034,4.60108,2470.567,2023-2-26T02:08:01Z
2023-02-26T00:08:34Z,42.805,6.029,13.3039,4.60117,2470.591,2023-2-26T02:11:04Z
2023-02-26T00:11:38Z,42.805,6.029,13.3041,4.60114,2470.544,2023-2-26T02:14:07Z
2023-02-26T00:14:41Z,42.805,6.029,13.3043,4.60115,2470.52,2023-2-26T02:17:11Z
2023-02-26T00:17:44Z,42.805,6.029,13.3033,4.60103,2470.567,2023-2-26T02:20:14Z
2023-02-26T00:20:47Z,42.805,6.029,13.3039,4.60114,2470.544,2023-2-26T02:23:17Z
2023-02-26T00:23:50Z,42.805,6.029,13.3029,4.60110,2470.53,2023-2-26T02:26:20Z
2023-02-26T00:26:53Z,42.805,6.029,13.3044,4.60104,2470.53,2023-2-26T02:29:23Z
2023-02-26T00:29:56Z,42.805,6.029,13.3036,4.60115,2470.53,2023-2-26T02:32:26Z
2023-02-26T00:32:59Z,42.805,6.029,13.3034,4.60113,2470.53,2023-2-26T02:35:29Z
2023-02-26T00:36:02Z,42.805,6.029,13.3036,4.60102,2470.507,2023-2-26T02:38:32Z
2023-02-26T00:39:05Z,42.805,6.029,13.3036,4.60104,2470.53,2023-2-26T02:41:35Z
2023-02-26T00:42:08Z,42.805,6.029,13.3036,4.60110,2470.544,2023-2-26T02:44:38Z
2023-02-26T00:45:11Z,42.805,6.029,13.3034,4.60092,2470.544,2023-2-26T02:47:41Z
2023-02-26T00:48:15Z,42.805,6.029,13.3027,4.60091,2470.53,2023-2-26T02:50:44Z
2023-02-26T00:51:18Z,42.805,6.029,13.3026,4.60084,2470.507,2023-2-26T02:53:47Z
2023-02-26T00:54:21Z,42.805,6.029,13.3031,4.60110,2470.544,2023-2-26T02:56:51Z
2023-02-26T00:57:24Z,42.805,6.029,13.3035,4.60106,2470.52,2023-2-26T02:59:54Z
2023-02-26T01:00:27Z,42.805,6.029,13.3028,4.60110,2470.507,2023-2-26T03:02:57Z
2023-02-26T01:03:30Z,42.805,6.029,13.3035,4.60106,2470.46,2023-2-26T03:06:00Z
2023-02-26T01:06:33Z,42.805,6.029,13.3034,4.60106,2470.53,2023-2-26T03:09:03Z
2023-02-26T01:09:36Z,42.805,6.029,13.3044,4.60117,2470.507,2023-2-26T03:12:06Z
2023-02-26T01:12:39Z,42.805,6.029,13.3034,4.60102,2470.52,2023-2-26T03:15:09Z
2023-02-26T01:15:42Z,42.805,6.029,13.3036,4.60110,2470.507,2023-2-26T03:18:12Z
2023-02-26T01:18:45Z,42.805,6.029,13.3036,4.60102,2470.483,2023-2-26T03:21:15Z
2023-02-26T01:21:48Z,42.805,6.029,13.3023,4.60087,2470.483,2023-2-26T03:24:18Z
2023-02-26T01:24:51Z,42.805,6.029,13.3026,4.60084,2470.53,2023-2-26T03:27:21Z
2023-02-26T01:27:55Z,42.805,6.029,13.3030,4.60090,2470.53,2023-2-26T03:30:24Z
2023-02-26T01:30:58Z,42.805,6.029,13.3032,4.60094,2470.507,2023-2-26T03:33:28Z
2023-02-26T01:34:01Z,42.805,6.029,13.3036,4.60102,2470.47,2023-2-26T03:36:31Z
2023-02-26T01:37:04Z,42.805,6.029,13.3044,4.60108,2470.483,2023-2-26T03:39:34Z
2023-02-26T01:40:07Z,42.805,6.029,13.3027,4.60114,2470.497,2023-2-26T03:42:37Z
2023-02-26T01:43:10Z,42.805,6.029,13.3039,4.60111,2470.497,2023-2-26T03:45:40Z
2023-02-26T01:46:13Z,42.805,6.029,13.3046,4.60112,2470.46,2023-2-26T03:48:43Z
2023-02-26T01:49:16Z,42.805,6.029,13.3043,4.60117,2470.483,2023-2-26T03:51:46Z
2023-02-26T01:52:19Z,42.805,6.029,13.3035,4.60114,2470.46,2023-2-26T03:54:49Z
2023-02-26T01:55:22Z,42.805,6.029,13.3036,4.60097,2470.474,2023-2-26T03:57:52Z
2023-02-26T01:58:25Z,42.805,6.029,13.3033,4.60100,2470.483,2023-2-26T04:00:55Z
2023-02-26T02:01:28Z,42.805,6.029,13.3027,4.60091,2470.474,2023-2-26T04:03:58Z
2023-02-26T02:04:32Z,42.805,6.029,13.3025,4.60087,2470.474,2023-2-26T04:07:01Z
2023-02-26T02:07:35Z,42.805,6.029,13.3036,4.60112,2470.507,2023-2-26T04:10:04Z
2023-02-26T02:10:38Z,42.805,6.029,13.3038,4.60112,2470.46,2023-2-26T04:13:08Z
2023-02-26T02:13:41Z,42.805,6.029,13.3035,4.60102,2470.497,2023-2-26T04:16:11Z
2023-02-26T02:16:44Z,42.805,6.029,13.3031,4.60097,2470.46,2023-2-26T04:19:14Z
2023-02-26T02:19:47Z,42.805,6.029,13.3029,4.60107,2470.507,2023-2-26T04:22:17Z
2023-02-26T02:22:50Z,42.805,6.029,13.3040,4.60109,2470.474,2023-2-26T04:25:20Z
2023-02-26T02:25:53Z,42.805,6.029,13.3040,4.60123,2470.497,2023-2-26T04:28:23Z
2023-02-26T02:28:56Z,42.805,6.029,13.3034,4.60112,2470.474,2023-2-26T04:31:26Z
2023-02-26T02:31:59Z,42.805,6.029,13.3043,4.60124,2470.46,2023-2-26T04:34:29Z
2023-02-26T02:35:02Z,42.805,6.029,13.3026,4.60117,2470.46,2023-2-26T04:37:32Z
2023-02-26T02:38:05Z,42.805,6.029,13.3031,4.60126,2470.474,2023-2-26T04:40:35Z
2023-02-26T02:41:09Z,42.805,6.029,13.3041,4.60128,2470.46,2023-2-26T04:43:38Z
2023-02-26T02:44:12Z,42.805,6.029,13.3040,4.60114,2470.46,2023-2-26T04:46:41Z
2023-02-26T02:47:15Z,42.805,6.029,13.3034,4.60119,2470.474,2023-2-26T04:49:45Z
2023-02-26T02:50:18Z,42.805,6.029,13.3031,4.60114,2470.474,2023-2-26T04:52:48Z
2023-02-26T02:53:21Z,42.805,6.029,13.3034,4.60097,2470.483,2023-2-26T04:55:51Z
2023-02-26T02:56:24Z,42.805,6.029,13.3030,4.60105,2470.46,2023-2-26T04:58:54Z
2023-02-26T02:59:27Z,42.805,6.029,13.3036,4.60120,2470.46,2023-2-26T05:01:57Z
2023-02-26T03:02:30Z,42.805,6.029,13.3031,4.60122,2470.497,2023-2-26T05:05:00Z
2023-02-26T03:05:33Z,42.805,6.029,13.3040,4.60114,2470.45,2023-2-26T05:08:03Z
2023-02-26T03:08:36Z,42.805,6.029,13.3039,4.60127,2470.437,2023-2-26T05:11:06Z
2023-02-26T03:11:39Z,42.805,6.029,13.3024,4.60106,2470.45,2023-2-26T05:14:09Z
2023-02-26T03:14:42Z,42.805,6.029,13.3026,4.60092,2470.45,2023-2-26T05:17:12Z
2023-02-26T03:17:45Z,42.805,6.029,13.3035,4.60093,2470.46,2023-2-26T05:20:15Z
2023-02-26T03:20:49Z,42.805,6.029,13.3046,4.60121,2470.437,2023-2-26T05:23:18Z
2023-02-26T03:23:52Z,42.805,6.029,13.3035,4.60107,2470.474,2023-2-26T05:26:22Z
2023-02-26T03:26:55Z,42.805,6.029,13.3024,4.60130,2470.46,2023-2-26T05:29:25Z
2023-02-26T03:29:58Z,42.805,6.029,13.3043,4.60113,2470.474,2023-2-26T05:32:28Z
2023-02-26T03:33:01Z,42.805,6.029,13.3024,4.60120,2470.46,2023-2-26T05:35:31Z
2023-02-26T03:36:04Z,42.805,6.029,13.3024,4.60098,2470.46,2023-2-26T05:38:34Z
2023-02-26T03:39:07Z,42.805,6.029,13.3028,4.60088,2470.437,2023-2-26T05:41:37Z
2023-02-26T03:42:10Z,42.805,6.029,13.3030,4.60115,2470.474,2023-2-26T05:44:40Z
2023-02-26T03:45:13Z,42.805,6.029,13.3042,4.60098,2470.437,2023-2-26T05:47:43Z
2023-02-26T03:48:16Z,42.805,6.029,13.3031,4.60090,2470.437,2023-2-26T05:50:46Z
2023-02-26T03:51:19Z,42.805,6.029,13.3026,4.60111,2470.46,2023-2-26T05:53:49Z
2023-02-26T03:54:22Z,42.805,6.029,13.3050,4.60128,2470.437,2023-2-26T05:56:52Z
2023-02-26T03:57:26Z,42.805,6.029,13.3048,4.60137,2470.474,2023-2-26T05:59:55Z
2023-02-26T04:00:29Z,42.805,6.029,13.3039,4.60132,2470.413,2023-2-26T06:02:59Z
2023-02-26T04:03:32Z,42.805,6.029,13.3046,4.60122,2470.45,2023-2-26T06:06:02Z
2023-02-26T04:06:35Z,42.805,6.029,13.3031,4.60103,2470.474,2023-2-26T06:09:05Z
2023-02-26T04:09:38Z,42.805,6.029,13.3029,4.60111,2470.413,2023-2-26T06:12:08Z
2023-02-26T04:12:41Z,42.805,6.029,13.3042,4.60110,2470.437,2023-2-26T06:15:11Z
2023-02-26T04:15:44Z,42.805,6.029,13.3041,4.60129,2470.413,2023-2-26T06:18:14Z
2023-02-26T04:18:47Z,42.805,6.029,13.3047,4.60122,2470.437,2023-2-26T06:21:17Z
2023-02-26T04:21:50Z,42.805,6.029,13.3034,4.60140,2470.474,2023-2-26T06:24:20Z
2023-02-26T04:24:53Z,42.805,6.029,13.3053,4.60135,2470.437,2023-2-26T06:27:23Z
2023-02-26T04:27:56Z,42.805,6.029,13.3037,4.60127,2470.45,2023-2-26T06:30:26Z
2023-02-26T04:30:59Z,42.805,6.029,13.3047,4.60120,2470.437,2023-2-26T06:33:29Z
2023-02-26T04:34:02Z,42.805,6.029,13.3034,4.60136,2470.474,2023-2-26T06:36:32Z
2023-02-26T04:37:06Z,42.805,6.029,13.3038,4.60124,2470.474,2023-2-26T06:39:35Z
2023-02-26T04:40:09Z,42.805,6.029,13.3032,4.60091,2470.437,2023-2-26T06:42:39Z
2023-02-26T04:43:12Z,42.805,6.029,13.3026,4.60088,2470.474,2023-2-26T06:45:42Z
2023-02-26T04:46:15Z,42.805,6.029,13.3024,4.60086,2470.46,2023-2-26T06:48:45Z
2023-02-26T04:49:18Z,42.805,6.029,13.3028,4.60092,2470.413,2023-2-26T06:51:48Z
2023-02-26T04:52:21Z,42.805,6.029,13.3027,4.60125,2470.45,2023-2-26T06:54:51Z
2023-02-26T04:55:24Z,42.805,6.029,13.3040,4.60123,2470.413,2023-2-26T06:57:54Z
2023-02-26T04:58:27Z,42.805,6.029,13.3050,4.60126,2470.437,2023-2-26T07:00:57Z
2023-02-26T05:01:30Z,42.805,6.029,13.3051,4.60137,2470.413,2023-2-26T07:04:00Z
2023-02-26T05:04:33Z,42.805,6.029,13.3056,4.60127,2470.45,2023-2-26T07:07:03Z
2023-02-26T05:07:36Z,42.805,6.029,13.3058,4.60135,2470.427,2023-2-26T07:10:06Z
2023-02-26T05:10:39Z,42.805,6.029,13.3036,4.60124,2470.45,2023-2-26T07:13:09Z
2023-02-26T05:13:42Z,42.805,6.029,13.3040,4.60126,2470.45,2023-2-26T07:16:12Z
2023-02-26T05:16:46Z,42.805,6.029,13.3051,4.60133,2470.45,2023-2-26T07:19:15Z
2023-02-26T05:19:49Z,42.805,6.029,13.3049,4.60130,2470.437,2023-2-26T07:22:19Z
2023-02-26T05:22:52Z,42.805,6.029,13.3039,4.60134,2470.437,2023-2-26T07:25:22Z
2023-02-26T05:25:55Z,42.805,6.029,13.3043,4.60137,2470.413,2023-2-26T07:28:25Z
2023-02-26T05:28:58Z,42.805,6.029,13.3051,4.60133,2470.45,2023-2-26T07:31:28Z
2023-02-26T05:32:01Z,42.805,6.029,13.3051,4.60129,2470.413,2023-2-26T07:34:31Z
2023-02-26T05:35:04Z,42.805,6.029,13.3050,4.60140,2470.413,2023-2-26T07:37:34Z
2023-02-26T05:38:07Z,42.805,6.029,13.3053,4.60138,2470.427,2023-2-26T07:40:37Z
2023-02-26T05:41:10Z,42.805,6.029,13.3046,4.60134,2470.413,2023-2-26T07:43:40Z
2023-02-26T05:44:13Z,42.805,6.029,13.3044,4.60135,2470.39,2023-2-26T07:46:43Z
2023-02-26T05:47:16Z,42.805,6.029,13.3032,4.60110,2470.45,2023-2-26T07:49:46Z
2023-02-26T05:50:19Z,42.805,6.029,13.3056,4.60122,2470.427,2023-2-26T07:52:49Z
2023-02-26T05:53:23Z,42.805,6.029,13.3038,4.60150,2470.413,2023-2-26T07:55:53Z
2023-02-26T05:56:26Z,42.805,6.029,13.3039,4.60135,2470.413,2023-2-26T07:58:56Z
2023-02-26T05:59:29Z,42.805,6.029,13.3050,4.60132,2470.39,2023-2-26T08:01:59Z
2023-02-26T06:02:32Z,42.805,6.029,13.3051,4.60153,2470.413,2023-2-26T08:05:02Z
2023-02-26T06:05:35Z,42.805,6.029,13.3043,4.60155,2470.413,2023-2-26T08:08:05Z
2023-02-26T06:08:38Z,42.805,6.029,13.3051,4.60132,2470.437,2023-2-26T08:11:08Z
2023-02-26T06:11:41Z,42.805,6.029,13.3051,4.60120,2470.413,2023-2-26T08:14:11Z
2023-02-26T06:14:44Z,42.805,6.029,13.3050,4.60135,2470.38,2023-2-26T08:17:14Z
2023-02-26T06:17:47Z,42.805,6.029,13.3031,4.60137,2470.39,2023-2-26T08:20:17Z
2023-02-26T06:20:50Z,42.805,6.029,13.3043,4.60126,2470.437,2023-2-26T08:23:20Z
2023-02-26T06:23:53Z,42.805,6.029,13.3034,4.60135,2470.437,2023-2-26T08:26:23Z
2023-02-26T06:26:56Z,42.805,6.029,13.3036,4.60135,2470.413,2023-2-26T08:29:26Z
2023-02-26T06:29:59Z,42.805,6.029,13.3036,4.60125,2470.427,2023-2-26T08:32:29Z
2023-02-26T06:33:03Z,42.805,6.029,13.3036,4.60149,2470.39,2023-2-26T08:35:33Z
2023-02-26T06:36:06Z,42.805,6.029,13.3058,4.60142,2470.39,2023-2-26T08:38:36Z
2023-02-26T06:39:09Z,42.805,6.029,13.3054,4.60147,2470.45,2023-2-26T08:41:39Z
2023-02-26T06:42:12Z,42.805,6.029,13.3036,4.60142,2470.427,2023-2-26T08:44:42Z
2023-02-26T06:45:15Z,42.805,6.029,13.3041,4.60087,2470.413,2023-2-26T08:47:45Z
2023-02-26T06:48:18Z,42.805,6.029,13.3042,4.60138,2470.427,2023-2-26T08:50:48Z
2023-02-26T06:51:21Z,42.805,6.029,13.3033,4.60150,2470.413,2023-2-26T08:53:51Z
2023-02-26T06:54:24Z,42.805,6.029,13.3035,4.60132,2470.427,2023-2-26T08:56:54Z
2023-02-26T06:57:27Z,42.805,6.029,13.3041,4.60143,2470.437,2023-2-26T08:59:57Z
2023-02-26T07:00:30Z,42.805,6.029,13.3030,4.60104,2470.45,2023-2-26T09:03:00Z
2023-02-26T07:03:33Z,42.805,6.029,13.3041,4.60104,2470.413,2023-2-26T09:06:03Z
2023-02-26T07:06:36Z,42.805,6.029,13.3043,4.60151,2470.437,2023-2-26T09:09:06Z
2023-02-26T07:09:40Z,42.805,6.029,13.3054,4.60140,2470.413,2023-2-26T09:12:10Z
2023-02-26T07:12:43Z,42.805,6.029,13.3048,4.60144,2470.437,2023-2-26T09:15:13Z
2023-02-26T07:15:46Z,42.805,6.029,13.3054,4.60141,2470.39,2023-2-26T09:18:16Z
2023-02-26T07:18:49Z,42.805,6.029,13.3035,4.60147,2470.427,2023-2-26T09:21:19Z
2023-02-26T07:21:52Z,42.805,6.029,13.3050,4.60135,2470.413,2023-2-26T09:24:22Z
2023-02-26T07:24:55Z,42.805,6.029,13.3044,4.60129,2470.45,2023-2-26T09:27:25Z
2023-02-26T07:27:58Z,42.805,6.029,13.3051,4.60127,2470.427,2023-2-26T09:30:28Z
2023-02-26T07:31:01Z,42.805,6.029,13.3051,4.60135,2470.437,2023-2-26T09:33:31Z
2023-02-26T07:34:04Z,42.805,6.029,13.3065,4.60142,2470.46,2023-2-26T09:36:34Z
2023-02-26T07:37:07Z,42.805,6.029,13.3042,4.60150,2470.437,2023-2-26T09:39:37Z
2023-02-26T07:40:10Z,42.805,6.029,13.3058,4.60142,2470.437,2023-2-26T09:42:40Z
2023-02-26T07:43:13Z,42.805,6.029,13.3041,4.60122,2470.45,2023-2-26T09:45:43Z
2023-02-26T07:46:16Z,42.805,6.029,13.3058,4.60142,2470.437,2023-2-26T09:48:47Z
2023-02-26T07:49:20Z,42.805,6.029,13.3041,4.60151,2470.413,2023-2-26T09:51:50Z
2023-02-26T07:52:23Z,42.805,6.029,13.3064,4.60137,2470.437,2023-2-26T09:54:53Z
2023-02-26T07:55:26Z,42.805,6.029,13.3058,4.60122,2470.427,2023-2-26T09:57:56Z
2023-02-26T07:58:29Z,42.805,6.029,13.3058,4.60135,2470.45,2023-2-26T10:00:59Z
2023-02-26T08:01:32Z,42.805,6.029,13.3054,4.60147,2470.474,2023-2-26T10:04:02Z
2023-02-26T08:04:35Z,42.805,6.029,13.3046,4.60124,2470.437,2023-2-26T10:07:05Z
2023-02-26T08:07:38Z,42.805,6.029,13.3050,4.60121,2470.437,2023-2-26T10:10:08Z
2023-02-26T08:10:41Z,42.805,6.029,13.3045,4.60152,2470.413,2023-2-26T10:13:11Z
2023-02-26T08:13:44Z,42.805,6.029,13.3052,4.60150,2470.45,2023-2-26T10:16:14Z
2023-02-26T08:16:47Z,42.805,6.029,13.3046,4.60107,2470.474,2023-2-26T10:19:17Z
2023-02-26T08:19:50Z,42.805,6.029,13.3028,4.60097,2470.437,2023-2-26T10:22:20Z
2023-02-26T08:22:53Z,42.805,6.029,13.3028,4.60101,2470.46,2023-2-26T10:25:23Z
2023-02-26T08:25:57Z,42.805,6.029,13.3029,4.60084,2470.46,2023-2-26T10:28:27Z
2023-02-26T08:29:00Z,42.805,6.029,13.3031,4.60128,2470.483,2023-2-26T10:31:30Z
2023-02-26T08:32:03Z,42.805,6.029,13.3043,4.60137,2470.46,2023-2-26T10:34:33Z
2023-02-26T08:35:06Z,42.805,6.029,13.3048,4.60132,2470.497,2023-2-26T10:37:36Z
2023-02-26T08:38:09Z,42.805,6.029,13.3034,4.60121,2470.483,2023-2-26T10:40:39Z
2023-02-26T08:41:12Z,42.805,6.029,13.3040,4.60110,2470.497,2023-2-26T10:43:42Z
2023-02-26T08:44:15Z,42.805,6.029,13.3026,4.60117,2470.474,2023-2-26T10:46:45Z
2023-02-26T08:47:18Z,42.805,6.029,13.3038,4.60140,2470.474,2023-2-26T10:49:48Z
2023-02-26T08:50:21Z,42.805,6.029,13.3043,4.60125,2470.483,2023-2-26T10:52:51Z
2023-02-26T08:53:24Z,42.805,6.029,13.3056,4.60150,2470.507,2023-2-26T10:55:54Z
2023-02-26T08:56:27Z,42.805,6.029,13.3041,4.60155,2470.437,2023-2-26T10:58:57Z
2023-02-26T08:59:30Z,42.805,6.029,13.3034,4.60135,2470.52,2023-2-26T11:02:01Z
2023-02-26T09:02:34Z,42.805,6.029,13.3036,4.60132,2470.46,2023-2-26T11:05:04Z
2023-02-26T09:05:37Z,42.805,6.029,13.3043,4.60144,2470.483,2023-2-26T11:08:07Z
2023-02-26T09:08:40Z,42.805,6.029,13.3030,4.60103,2470.497,2023-2-26T11:11:10Z
2023-02-26T09:11:43Z,42.805,6.029,13.3035,4.60103,2470.507,2023-2-26T11:14:13Z
2023-02-26T09:14:46Z,42.805,6.029,13.3036,4.60101,2470.52,2023-2-26T11:17:16Z
2023-02-26T09:17:49Z,42.805,6.029,13.3034,4.60120,2470.53,2023-2-26T11:20:19Z
2023-02-26T09:20:52Z,42.805,6.029,13.3031,4.60101,2470.52,2023-2-26T11:23:22Z
2023-02-26T09:23:55Z,42.805,6.029,13.3029,4.60095,2470.483,2023-2-26T11:26:25Z
2023-02-26T09:26:58Z,42.805,6.029,13.3033,4.60097,2470.553,2023-2-26T11:29:28Z
2023-02-26T09:30:01Z,42.805,6.029,13.3025,4.60095,2470.507,2023-2-26T11:32:31Z
2023-02-26T09:33:04Z,42.805,6.029,13.3034,4.60095,2470.507,2023-2-26T11:35:34Z
2023-02-26T09:36:08Z,42.805,6.029,13.3038,4.60102,2470.53,2023-2-26T11:38:38Z
2023-02-26T09:39:11Z,42.805,6.029,13.3036,4.60104,2470.507,2023-2-26T11:41:41Z
2023-02-26T09:42:14Z,42.805,6.029,13.3029,4.60114,2470.53,2023-2-26T11:44:44Z
2023-02-26T09:45:17Z,42.805,6.029,13.3040,4.60099,2470.507,2023-2-26T11:47:47Z
2023-02-26T09:48:20Z,42.805,6.029,13.3031,4.60107,2470.53,2023-2-26T11:50:50Z
2023-02-26T09:51:23Z,42.805,6.029,13.3024,4.60103,2470.53,2023-2-26T11:53:53Z
2023-02-26T09:54:26Z,42.805,6.029,13.3023,4.60113,2470.53,2023-2-26T11:56:56Z
2023-02-26T09:57:29Z,42.805,6.029,13.3029,4.60097,2470.544,2023-2-26T11:59:59Z
2023-02-26T10:00:32Z,42.805,6.029,13.3034,4.60104,2470.553,2023-2-26T12:03:02Z
2023-02-26T10:03:35Z,42.805,6.029,13.3026,4.60094,2470.539,2023-2-26T12:06:05Z
2023-02-26T10:06:38Z,42.805,6.029,13.3027,4.60097,2470.591,2023-2-26T12:09:08Z
2023-02-26T10:09:41Z,42.805,6.029,13.3026,4.60108,2470.53,2023-2-26T12:12:12Z
2023-02-26T10:12:45Z,42.805,6.029,13.3034,4.60106,2470.53,2023-2-26T12:15:15Z
2023-02-26T10:15:48Z,42.805,6.029,13.3032,4.60111,2470.53,2023-2-26T12:18:18Z
2023-02-26T10:18:51Z,42.805,6.029,13.3029,4.60094,2470.53,2023-2-26T12:21:21Z
2023-02-26T10:21:54Z,42.805,6.029,13.3030,4.60096,2470.577,2023-2-26T12:24:24Z
2023-02-26T10:24:57Z,42.805,6.029,13.3026,4.60105,2470.577,2023-2-26T12:27:27Z
2023-02-26T10:28:00Z,42.805,6.029,13.3023,4.60089,2470.553,2023-2-26T12:30:30Z
2023-02-26T10:31:03Z,42.805,6.029,13.3029,4.60128,2470.544,2023-2-26T12:33:33Z
2023-02-26T10:34:06Z,42.805,6.029,13.3028,4.60113,2470.553,2023-2-26T12:36:36Z
2023-02-26T10:37:09Z,42.805,6.029,13.3026,4.60093,2470.591,2023-2-26T12:39:39Z
2023-02-26T10:40:12Z,42.805,6.029,13.3034,4.60117,2470.553,2023-2-26T12:42:42Z
2023-02-26T10:43:15Z,42.805,6.029,13.3035,4.60096,2470.567,2023-2-26T12:45:45Z
2023-02-26T10:46:18Z,42.805,6.029,13.3031,4.60110,2470.591,2023-2-26T12:48:49Z
2023-02-26T10:49:22Z,42.805,6.029,13.3029,4.60101,2470.577,2023-2-26T12:51:52Z
2023-02-26T10:52:25Z,42.805,6.029,13.3035,4.60109,2470.591,2023-2-26T12:54:55Z
2023-02-26T10:55:28Z,42.805,6.029,13.3036,4.60101,2470.591,2023-2-26T12:57:58Z
2023-02-26T10:58:31Z,42.805,6.029,13.3029,4.60097,2470.591,2023-2-26T13:01:01Z
2023-02-26T11:01:34Z,42.805,6.029,13.3029,4.60101,2470.553,2023-2-26T13:04:04Z
2023-02-26T11:04:37Z,42.805,6.029,13.3031,4.60111,2470.614,2023-2-26T13:07:07Z
2023-02-26T11:07:40Z,42.805,6.029,13.3028,4.60104,2470.553,2023-2-26T13:10:10Z
2023-02-26T11:10:43Z,42.805,6.029,13.3031,4.60102,2470.577,2023-2-26T13:13:13Z
2023-02-26T11:13:46Z,42.805,6.029,13.3026,4.60124,2470.553,2023-2-26T13:16:16Z
2023-02-26T11:16:49Z,42.805,6.029,13.3034,4.60113,2470.567,2023-2-26T13:19:19Z
2023-02-26T11:19:52Z,42.805,6.029,13.3025,4.60109,2470.563,2023-2-26T13:22:22Z
2023-02-26T11:22:55Z,42.805,6.029,13.3024,4.60097,2470.567,2023-2-26T13:25:25Z
2023-02-26T11:25:58Z,42.805,6.029,13.3026,4.60087,2470.577,2023-2-26T13:28:29Z
2023-02-26T11:29:02Z,42.805,6.029,13.3024,4.60084,2470.553,2023-2-26T13:31:32Z
2023-02-26T11:32:05Z,42.805,6.029,13.3039,4.60104,2470.591,2023-2-26T13:34:35Z
2023-02-26T11:35:08Z,42.805,6.029,13.3024,4.60094,2470.553,2023-2-26T13:37:38Z
2023-02-26T11:38:11Z,42.805,6.029,13.3026,4.60094,2470.563,2023-2-26T13:40:41Z
2023-02-26T11:41:14Z,42.805,6.029,13.3029,4.60109,2470.577,2023-2-26T13:43:44Z
2023-02-26T11:44:17Z,42.805,6.029,13.3023,4.60088,2470.567,2023-2-26T13:46:47Z
2023-02-26T11:47:20Z,42.805,6.029,13.3035,4.60097,2470.591,2023-2-26T13:49:50Z
2023-02-26T11:50:23Z,42.805,6.029,13.3025,4.60095,2470.577,2023-2-26T13:52:53Z
2023-02-26T11:53:26Z,42.805,6.029,13.3028,4.60095,2470.577,2023-2-26T13:55:56Z
2023-02-26T11:56:29Z,42.805,6.029,13.3031,4.60094,2470.567,2023-2-26T13:58:59Z
2023-02-26T11:59:32Z,42.805,6.029,13.3029,4.60100,2470.544,2023-2-26T14:02:03Z
2023-02-26T12:02:36Z,42.805,6.029,13.3032,4.60096,2470.567,2023-2-26T14:05:06Z
2023-02-26T12:05:39Z,42.805,6.029,13.3031,4.60107,2470.591,2023-2-26T14:08:09Z
2023-02-26T12:08:42Z,42.805,6.029,13.3025,4.60102,2470.553,2023-2-26T14:11:12Z
2023-02-26T12:11:45Z,42.805,6.029,13.3024,4.60092,2470.53,2023-2-26T14:14:15Z
2023-02-26T12:14:48Z,42.805,6.029,13.3029,4.60098,2470.553,2023-2-26T14:17:18Z
2023-02-26T12:17:51Z,42.805,6.029,13.3027,4.60106,2470.53,2023-2-26T14:20:21Z
2023-02-26T12:20:54Z,42.805,6.029,13.3029,4.60097,2470.553,2023-2-26T14:23:24Z
2023-02-26T12:23:57Z,42.805,6.029,13.3025,4.60097,2470.553,2023-2-26T14:26:27Z
2023-02-26T12:27:00Z,42.805,6.029,13.3033,4.60096,2470.591,2023-2-26T14:29:30Z
2023-02-26T12:30:03Z,42.805,6.029,13.3027,4.60094,2470.577,2023-2-26T14:32:33Z
2023-02-26T12:33:06Z,42.805,6.029,13.3023,4.60115,2470.553,2023-2-26T14:35:37Z
2023-02-26T12:36:09Z,42.805,6.029,13.3028,4.60098,2470.53,2023-2-26T14:38:40Z
2023-02-26T12:39:13Z,42.805,6.029,13.3026,4.60093,2470.567,2023-2-26T14:41:43Z
2023-02-26T12:42:16Z,42.805,6.029,13.3029,4.60095,2470.577,2023-2-26T14:44:46Z
2023-02-26T12:45:19Z,42.805,6.029,13.3022,4.60099,2470.553,2023-2-26T14:47:49Z
2023-02-26T12:48:22Z,42.805,6.029,13.3024,4.60111,2470.544,2023-2-26T14:50:52Z
2023-02-26T12:51:25Z,42.805,6.029,13.3024,4.60098,2470.577,2023-2-26T14:53:55Z
2023-02-26T12:54:28Z,42.805,6.029,13.3038,4.60089,2470.577,2023-2-26T14:56:58Z
2023-02-26T12:57:31Z,42.805,6.029,13.3025,4.60103,2470.553,2023-2-26T15:00:01Z
2023-02-26T13:00:34Z,42.805,6.029,13.3029,4.60092,2470.567,2023-2-26T15:03:04Z
2023-02-26T13:03:37Z,42.805,6.029,13.3039,4.60106,2470.553,2023-2-26T15:06:07Z
2023-02-26T13:06:40Z,42.805,6.029,13.3033,4.60107,2470.544,2023-2-26T15:09:10Z
2023-02-26T13:09:43Z,42.805,6.029,13.3037,4.60106,2470.553,2023-2-26T15:12:14Z
2023-02-26T13:12:46Z,42.805,6.029,13.3030,4.60098,2470.493,2023-2-26T15:15:17Z
2023-02-26T13:15:50Z,42.805,6.029,13.3024,4.60096,2470.567,2023-2-26T15:18:20Z
2023-02-26T13:18:53Z,42.805,6.029,13.3030,4.60107,2470.507,2023-2-26T15:21:23Z
2023-02-26T13:21:56Z,42.805,6.029,13.3026,4.60087,2470.567,2023-2-26T15:24:26Z
2023-02-26T13:24:59Z,42.805,6.029,13.3026,4.60093,2470.53,2023-2-26T15:27:29Z
2023-02-26T13:28:02Z,42.805,6.029,13.3028,4.60090,2470.553,2023-2-26T15:30:32Z
2023-02-26T13:31:05Z,42.805,6.029,13.3036,4.60097,2470.553,2023-2-26T15:33:35Z
2023-02-26T13:34:08Z,42.805,6.029,13.3029,4.60095,2470.53,2023-2-26T15:36:38Z
2023-02-26T13:37:11Z,42.805,6.029,13.3026,4.60096,2470.544,2023-2-26T15:39:41Z
2023-02-26T13:40:14Z,42.805,6.029,13.3025,4.60092,2470.544,2023-2-26T15:42:44Z
2023-02-26T13:43:17Z,42.805,6.029,13.3026,4.60089,2470.567,2023-2-26T15:45:47Z
2023-02-26T13:46:20Z,42.805,6.029,13.3026,4.60098,2470.53,2023-2-26T15:48:51Z
2023-02-26T13:49:23Z,42.805,6.029,13.3036,4.60093,2470.567,2023-2-26T15:51:54Z
2023-02-26T13:52:27Z,42.805,6.029,13.3029,4.60087,2470.53,2023-2-26T15:54:57Z
2023-02-26T13:55:30Z,42.805,6.029,13.3032,4.60097,2470.507,2023-2-26T15:58:00Z
2023-02-26T13:58:33Z,42.805,6.029,13.3029,4.60090,2470.53,2023-2-26T16:01:03Z
2023-02-26T14:01:36Z,42.805,6.029,13.3031,4.60110,2470.53,2023-2-26T16:04:06Z
2023-02-26T14:04:39Z,42.805,6.029,13.3038,4.60109,2470.544,2023-2-26T16:07:09Z
2023-02-26T14:07:42Z,42.805,6.029,13.3024,4.60106,2470.544,2023-2-26T16:10:12Z
2023-02-26T14:10:45Z,42.805,6.029,13.3031,4.60084,2470.53,2023-2-26T16:13:15Z
2023-02-26T14:13:48Z,42.805,6.029,13.3034,4.60103,2470.553,2023-2-26T16:16:18Z
2023-02-26T14:16:51Z,42.805,6.029,13.3027,4.60092,2470.567,2023-2-26T16:19:21Z
2023-02-26T14:19:54Z,42.805,6.029,13.3034,4.60094,2470.52,2023-2-26T16:22:24Z
2023-02-26T14:22:57Z,42.805,6.029,13.3024,4.60082,2470.52,2023-2-26T16:25:28Z
2023-02-26T14:26:00Z,42.805,6.029,13.3024,4.60086,2470.53,2023-2-26T16:28:31Z
2023-02-26T14:29:04Z,42.805,6.029,13.3025,4.60094,2470.567,2023-2-26T16:31:34Z
2023-02-26T14:32:07Z,42.805,6.029,13.3027,4.60088,2470.516,2023-2-26T16:34:37Z
2023-02-26T14:35:10Z,42.805,6.029,13.3031,4.60090,2470.507,2023-2-26T16:37:40Z
2023-02-26T14:38:13Z,42.805,6.029,13.3031,4.60096,2470.507,2023-2-26T16:40:43Z
2023-02-26T14:41:16Z,42.805,6.029,13.3036,4.60089,2470.553,2023-2-26T16:43:46Z
2023-02-26T14:44:19Z,42.805,6.029,13.3025,4.60092,2470.53,2023-2-26T16:46:49Z
2023-02-26T14:47:22Z,42.805,6.029,13.3029,4.60096,2470.507,2023-2-26T16:49:52Z
2023-02-26T14:50:25Z,42.805,6.029,13.3029,4.60092,2470.53,2023-2-26T16:52:55Z
2023-02-26T14:53:28Z,42.805,6.029,13.3031,4.60106,2470.53,2023-2-26T16:55:58Z
2023-02-26T14:56:31Z,42.805,6.029,13.3036,4.60114,2470.544,2023-2-26T16:59:02Z
2023-02-26T14:59:34Z,42.805,6.029,13.3026,4.60093,2470.53,2023-2-26T17:02:05Z
2023-02-26T15:02:37Z,42.805,6.029,13.3030,4.60097,2470.53,2023-2-26T17:05:08Z
2023-02-26T15:05:41Z,42.805,6.029,13.3026,4.60088,2470.544,2023-2-26T17:08:11Z
2023-02-26T15:08:44Z,42.805,6.029,13.3031,4.60091,2470.52,2023-2-26T17:11:14Z
2023-02-26T15:11:47Z,42.805,6.029,13.3025,4.60091,2470.507,2023-2-26T17:14:17Z
2023-02-26T15:14:50Z,42.805,6.029,13.3026,4.60087,2470.516,2023-2-26T17:17:20Z